AAL1605 KSAT-KDAY

Flight info

Callsign AAL1605
Flight time 2h 22m
Altitude 39000
Route YODUH2 KLNGR FUZ SHB RID
Aircraft B77W/H-SDE1E2E3FGHIJ2J3J4J5M1RWXY/LB1D1

Departure

Time 2026-04-28 03:35
Airport San Antonio International Airport (KSAT)

Arrival

Time 2026-04-28 05:57
Airport James M. Cox Dayton International Airport (KDAY)
Time Latitude Longitude Altitude Speed Heading
2026-04-28 03:11 29.53078 -98.47494 802 ft 0 kts 39°
2026-04-28 03:28 29.53085 -98.47487 803 ft 5 kts 41°
2026-04-28 03:28 29.53126 -98.47393 804 ft 18 kts 91°
2026-04-28 03:28 29.53094 -98.47236 803 ft 22 kts 108°
2026-04-28 03:28 29.52994 -98.47097 799 ft 23 kts 133°
2026-04-28 03:29 29.52892 -98.46968 796 ft 15 kts 131°
2026-04-28 03:29 29.52823 -98.46873 793 ft 16 kts 130°
2026-04-28 03:29 29.52746 -98.46787 794 ft 12 kts 158°
2026-04-28 03:29 29.52681 -98.46825 795 ft 11 kts 223°
2026-04-28 03:30 29.52622 -98.46882 795 ft 11 kts 217°
2026-04-28 03:30 29.52561 -98.46944 794 ft 12 kts 222°
2026-04-28 03:30 29.52496 -98.47009 795 ft 12 kts 222°
2026-04-28 03:30 29.52426 -98.47062 797 ft 12 kts 182°
2026-04-28 03:31 29.52408 -98.47057 797 ft 0 kts 158°
2026-04-28 03:34 29.52381 -98.47034 796 ft 11 kts 135°
2026-04-28 03:34 29.52343 -98.46967 796 ft 8 kts 104°
2026-04-28 03:34 29.52372 -98.46922 796 ft 8 kts 20°
2026-04-28 03:34 29.52458 -98.46855 794 ft 32 kts 38°
2026-04-28 03:35 29.52861 -98.46457 792 ft 124 kts 40°
2026-04-28 03:35 29.53724 -98.45621 908 ft 191 kts 43°
2026-04-28 03:35 29.54785 -98.44632 1735 ft 202 kts 38°
2026-04-28 03:35 29.56160 -98.44186 2682 ft 208 kts
2026-04-28 03:36 29.57671 -98.44242 3232 ft 233 kts
2026-04-28 03:36 29.59434 -98.44172 3566 ft 273 kts
2026-04-28 03:36 29.61393 -98.44043 4491 ft 283 kts
2026-04-28 03:36 29.63340 -98.43900 5725 ft 286 kts
2026-04-28 03:37 29.65339 -98.43747 6894 ft 287 kts
2026-04-28 03:37 29.67356 -98.43585 7940 ft 294 kts
2026-04-28 03:37 29.69432 -98.43415 8927 ft 302 kts
2026-04-28 03:37 29.71539 -98.43239 9944 ft 307 kts
2026-04-28 03:38 29.73707 -98.43057 10720 ft 322 kts
2026-04-28 03:38 29.76044 -98.42861 11026 ft 353 kts
2026-04-28 03:38 29.78606 -98.42643 11390 ft 379 kts
2026-04-28 03:38 29.81249 -98.42414 12204 ft 389 kts
2026-04-28 03:39 29.83983 -98.42180 13181 ft 394 kts
2026-04-28 03:39 29.86705 -98.41942 14162 ft 398 kts
2026-04-28 03:39 29.89465 -98.41615 15108 ft 402 kts
2026-04-28 03:39 29.92287 -98.41234 16091 ft 407 kts
2026-04-28 03:40 29.95095 -98.40851 17043 ft 413 kts
2026-04-28 03:40 29.97963 -98.40467 18002 ft 418 kts
2026-04-28 03:40 30.00909 -98.40082 18866 ft 423 kts
2026-04-28 03:40 30.03842 -98.39705 19727 ft 428 kts
2026-04-28 03:41 30.06798 -98.39309 20570 ft 434 kts
2026-04-28 03:41 30.09791 -98.38647 21404 ft 443 kts
2026-04-28 03:41 30.12778 -98.37725 22219 ft 449 kts 10°
2026-04-28 03:41 30.15834 -98.36760 23014 ft 455 kts 10°
2026-04-28 03:42 30.18886 -98.35802 23735 ft 460 kts
2026-04-28 03:42 30.22021 -98.34827 24416 ft 465 kts
2026-04-28 03:42 30.25138 -98.33864 25117 ft 469 kts
2026-04-28 03:42 30.28291 -98.32896 25808 ft 472 kts
2026-04-28 03:43 30.31479 -98.31922 26479 ft 476 kts
2026-04-28 03:43 30.34730 -98.30931 27132 ft 480 kts
2026-04-28 03:43 30.37976 -98.29941 27763 ft 485 kts
2026-04-28 03:43 30.41252 -98.28941 28389 ft 489 kts
2026-04-28 03:44 30.44539 -98.27937 28992 ft 493 kts
2026-04-28 03:44 30.47860 -98.26921 29572 ft 497 kts
2026-04-28 03:44 30.51205 -98.25897 30102 ft 500 kts
2026-04-28 03:44 30.54566 -98.24867 30552 ft 503 kts
2026-04-28 03:45 30.57972 -98.23822 30997 ft 505 kts
2026-04-28 03:45 30.61351 -98.22783 31492 ft 505 kts
2026-04-28 03:45 30.64766 -98.21730 32123 ft 503 kts
2026-04-28 03:45 30.68135 -98.20689 32802 ft 499 kts
2026-04-28 03:46 30.71451 -98.19665 33426 ft 495 kts
2026-04-28 03:46 30.74787 -98.18637 34015 ft 493 kts
2026-04-28 03:46 30.78115 -98.17613 34464 ft 492 kts
2026-04-28 03:46 30.81398 -98.16604 34884 ft 492 kts
2026-04-28 03:47 30.84706 -98.15586 35296 ft 491 kts
2026-04-28 03:47 30.88018 -98.14564 35726 ft 490 kts
2026-04-28 03:47 30.91308 -98.13547 36147 ft 489 kts
2026-04-28 03:47 30.94604 -98.12527 36551 ft 488 kts
2026-04-28 03:48 30.97854 -98.11522 36928 ft 487 kts
2026-04-28 03:48 31.01145 -98.10503 37330 ft 486 kts
2026-04-28 03:48 31.04381 -98.09500 37749 ft 484 kts
2026-04-28 03:48 31.07662 -98.08482 38147 ft 484 kts
2026-04-28 03:49 31.10913 -98.07476 38297 ft 488 kts
2026-04-28 03:49 31.14191 -98.06462 38335 ft 494 kts
2026-04-28 03:49 31.20900 -98.04371 38421 ft 505 kts
2026-04-28 03:50 31.24290 -98.03070 38452 ft 518 kts 11°
2026-04-28 03:50 31.27620 -98.01426 38509 ft 525 kts 13°
2026-04-28 03:50 31.34356 -97.97936 38631 ft 531 kts 14°
2026-04-28 03:51 31.37724 -97.96183 38784 ft 531 kts 14°
2026-04-28 03:51 31.41088 -97.94443 38846 ft 531 kts 13°
2026-04-28 03:51 31.47854 -97.90975 38932 ft 528 kts 13°
2026-04-28 03:52 31.54572 -97.87551 38929 ft 526 kts 13°
2026-04-28 03:52 31.61281 -97.84132 38920 ft 525 kts 13°
2026-04-28 03:53 31.67961 -97.80720 38895 ft 525 kts 13°
2026-04-28 03:53 31.74656 -97.77291 38873 ft 525 kts 13°
2026-04-28 03:54 31.81345 -97.73861 38862 ft 526 kts 13°
2026-04-28 03:54 31.88090 -97.70395 38869 ft 526 kts 13°
2026-04-28 03:55 31.94792 -97.66945 38867 ft 527 kts 13°
2026-04-28 03:55 32.01481 -97.63497 38868 ft 528 kts 13°
2026-04-28 03:56 32.08234 -97.60010 38867 ft 529 kts 13°
2026-04-28 03:56 32.14986 -97.56518 38870 ft 530 kts 13°
2026-04-28 03:57 32.21747 -97.53016 38883 ft 532 kts 13°
2026-04-28 03:57 32.28518 -97.49503 38900 ft 533 kts 13°
2026-04-28 03:58 32.35288 -97.45985 38895 ft 535 kts 13°
2026-04-28 03:58 32.42108 -97.42434 38897 ft 536 kts 13°
2026-04-28 03:59 32.48978 -97.38851 38937 ft 537 kts 13°
2026-04-28 03:59 32.55795 -97.35289 38938 ft 538 kts 14°
2026-04-28 04:00 32.62594 -97.31730 38939 ft 539 kts 14°
2026-04-28 04:00 32.69468 -97.28126 38925 ft 540 kts 14°
2026-04-28 04:01 32.76343 -97.24513 38912 ft 540 kts 14°
2026-04-28 04:01 32.83204 -97.20896 38906 ft 541 kts 15°
2026-04-28 04:02 32.86559 -97.18732 38910 ft 553 kts 24°
2026-04-28 04:02 32.89679 -97.16032 38925 ft 563 kts 31°
2026-04-28 04:02 32.95181 -97.09269 38936 ft 577 kts 44°
2026-04-28 04:03 33.00210 -97.01810 38915 ft 578 kts 45°
2026-04-28 04:03 33.05243 -96.94359 38924 ft 577 kts 44°
2026-04-28 04:04 33.10340 -96.86931 38934 ft 576 kts 44°
2026-04-28 04:04 33.15416 -96.79583 38922 ft 576 kts 44°
2026-04-28 04:05 33.19663 -96.73426 38930 ft 575 kts 44°
2026-04-28 04:05 33.24735 -96.66045 38948 ft 575 kts 44°
2026-04-28 04:06 33.29794 -96.58661 38939 ft 574 kts 44°
2026-04-28 04:06 33.34852 -96.51263 38923 ft 574 kts 44°
2026-04-28 04:07 33.39905 -96.43859 38909 ft 573 kts 44°
2026-04-28 04:07 33.44918 -96.36498 38888 ft 573 kts 44°
2026-04-28 04:08 33.49946 -96.29101 38890 ft 572 kts 44°
2026-04-28 04:08 33.54944 -96.21731 38894 ft 572 kts 44°
2026-04-28 04:09 33.59971 -96.14306 38891 ft 572 kts 44°
2026-04-28 04:09 33.64989 -96.06878 38894 ft 571 kts 44°
2026-04-28 04:10 33.69958 -95.99508 38905 ft 571 kts 44°
2026-04-28 04:10 33.74943 -95.92097 38894 ft 571 kts 44°
2026-04-28 04:11 33.79942 -95.84652 38896 ft 571 kts 44°
2026-04-28 04:11 33.84928 -95.77210 38909 ft 570 kts 44°
2026-04-28 04:12 33.89911 -95.69758 38933 ft 570 kts 45°
2026-04-28 04:12 33.94862 -95.62338 38948 ft 570 kts 45°
2026-04-28 04:13 33.99840 -95.54864 38952 ft 571 kts 45°
2026-04-28 04:13 34.04775 -95.47437 38946 ft 571 kts 45°
2026-04-28 04:14 34.09767 -95.39909 38935 ft 572 kts 45°
2026-04-28 04:14 34.14717 -95.32428 38923 ft 572 kts 45°
2026-04-28 04:15 34.19669 -95.24930 38916 ft 573 kts 45°
2026-04-28 04:16 34.27117 -95.13622 38895 ft 574 kts 46°
2026-04-28 04:16 34.32077 -95.06071 38896 ft 574 kts 46°
2026-04-28 04:17 34.37045 -94.98491 38897 ft 575 kts 46°
2026-04-28 04:17 34.42014 -94.90895 38901 ft 575 kts 46°
2026-04-28 04:18 34.46968 -94.83304 38889 ft 575 kts 46°
2026-04-28 04:18 34.51900 -94.75731 38882 ft 575 kts 46°
2026-04-28 04:19 34.56862 -94.68095 38902 ft 574 kts 46°
2026-04-28 04:19 34.61804 -94.60475 38895 ft 574 kts 46°
2026-04-28 04:20 34.66732 -94.52860 38897 ft 573 kts 46°
2026-04-28 04:20 34.71630 -94.45274 38907 ft 572 kts 46°
2026-04-28 04:21 34.76538 -94.37656 38902 ft 570 kts 46°
2026-04-28 04:21 34.81427 -94.30053 38896 ft 568 kts 46°
2026-04-28 04:22 34.86257 -94.22524 38883 ft 566 kts 46°
2026-04-28 04:22 34.91097 -94.14965 38881 ft 565 kts 47°
2026-04-28 04:23 34.95916 -94.07421 38863 ft 563 kts 47°
2026-04-28 04:23 35.00714 -93.99895 38863 ft 562 kts 47°
2026-04-28 04:24 35.05504 -93.92365 38865 ft 561 kts 47°
2026-04-28 04:24 35.10277 -93.84847 38864 ft 560 kts 47°
2026-04-28 04:25 35.15030 -93.77343 38870 ft 558 kts 47°
2026-04-28 04:25 35.19778 -93.69831 38867 ft 557 kts 47°
2026-04-28 04:26 35.24474 -93.62384 38862 ft 556 kts 47°
2026-04-28 04:26 35.29188 -93.54895 38863 ft 554 kts 47°
2026-04-28 04:27 35.33880 -93.47425 38870 ft 554 kts 48°
2026-04-28 04:27 35.38577 -93.39929 38877 ft 553 kts 48°
2026-04-28 04:28 35.43256 -93.32447 38885 ft 552 kts 48°
2026-04-28 04:28 35.47936 -93.24947 38889 ft 552 kts 49°
2026-04-28 04:29 35.52568 -93.17508 38882 ft 552 kts 49°
2026-04-28 04:29 35.57227 -93.10009 38881 ft 552 kts 49°
2026-04-28 04:30 35.61877 -93.02508 38872 ft 552 kts 49°
2026-04-28 04:30 35.66529 -92.94989 38889 ft 552 kts 49°
2026-04-28 04:31 35.71178 -92.87457 38887 ft 552 kts 50°
2026-04-28 04:31 35.75817 -92.79926 38892 ft 552 kts 50°
2026-04-28 04:32 35.80455 -92.72379 38891 ft 552 kts 50°
2026-04-28 04:32 35.85052 -92.64882 38896 ft 552 kts 50°
2026-04-28 04:33 35.89678 -92.57322 38891 ft 551 kts 50°
2026-04-28 04:33 35.94300 -92.49753 38887 ft 551 kts 50°
2026-04-28 04:34 35.98911 -92.42184 38880 ft 551 kts 50°
2026-04-28 04:34 36.03482 -92.34665 38883 ft 550 kts 50°
2026-04-28 04:35 36.08079 -92.27086 38886 ft 550 kts 49°
2026-04-28 04:35 36.12660 -92.19516 38883 ft 549 kts 49°
2026-04-28 04:36 36.17229 -92.11950 38881 ft 548 kts 49°
2026-04-28 04:36 36.21759 -92.04433 38881 ft 547 kts 49°
2026-04-28 04:37 36.26304 -91.96873 38882 ft 546 kts 49°
2026-04-28 04:37 36.30835 -91.89321 38881 ft 545 kts 49°
2026-04-28 04:38 36.35348 -91.81782 38884 ft 543 kts 50°
2026-04-28 04:38 36.39844 -91.74255 38890 ft 542 kts 50°
2026-04-28 04:39 36.44325 -91.66736 38891 ft 541 kts 50°
2026-04-28 04:39 36.48766 -91.59269 38895 ft 540 kts 50°
2026-04-28 04:40 36.53229 -91.51747 38888 ft 540 kts 50°
2026-04-28 04:40 36.57689 -91.44214 38897 ft 541 kts 50°
2026-04-28 04:41 36.62159 -91.36647 38889 ft 542 kts 50°
2026-04-28 04:41 36.66606 -91.29102 38890 ft 544 kts 50°
2026-04-28 04:42 36.71114 -91.21438 38882 ft 545 kts 50°
2026-04-28 04:42 36.75569 -91.13845 38884 ft 547 kts 50°
2026-04-28 04:43 36.80060 -91.06173 38878 ft 548 kts 50°
2026-04-28 04:43 36.84550 -90.98486 38877 ft 548 kts 50°
2026-04-28 04:44 36.89036 -90.90787 38861 ft 548 kts 50°
2026-04-28 04:44 36.93524 -90.83068 38862 ft 548 kts 50°
2026-04-28 04:45 36.97976 -90.75392 38852 ft 547 kts 50°
2026-04-28 04:45 37.02441 -90.67679 38850 ft 546 kts 50°
2026-04-28 04:46 37.06883 -90.59985 38851 ft 544 kts 50°
2026-04-28 04:46 37.11319 -90.52287 38846 ft 543 kts 50°
2026-04-28 04:47 37.15732 -90.44610 38845 ft 542 kts 50°
2026-04-28 04:47 37.20132 -90.36939 38843 ft 542 kts 50°
2026-04-28 04:48 37.24528 -90.29256 38838 ft 542 kts 50°
2026-04-28 04:48 37.28894 -90.21609 38840 ft 542 kts 50°
2026-04-28 04:49 37.33290 -90.13890 38834 ft 541 kts 50°
2026-04-28 04:49 37.37665 -90.06191 38838 ft 541 kts 50°
2026-04-28 04:50 37.42036 -89.98482 38831 ft 541 kts 51°
2026-04-28 04:50 37.46380 -89.90801 38813 ft 541 kts 51°
2026-04-28 04:51 37.50747 -89.83063 38831 ft 541 kts 51°
2026-04-28 04:51 37.55106 -89.75322 38837 ft 541 kts 51°
2026-04-28 04:52 37.59458 -89.67575 38842 ft 542 kts 51°
2026-04-28 04:52 37.63075 -89.61121 38849 ft 542 kts 50°
2026-04-28 04:53 37.68134 -89.52074 38865 ft 542 kts 51°
2026-04-28 04:53 37.71771 -89.45555 38881 ft 542 kts 50°
2026-04-28 04:54 37.76107 -89.37767 38895 ft 541 kts 50°
2026-04-28 04:54 37.80407 -89.30023 38894 ft 540 kts 50°
2026-04-28 04:55 37.84722 -89.22235 38887 ft 539 kts 50°
2026-04-28 04:55 37.89015 -89.14469 38883 ft 538 kts 50°
2026-04-28 04:56 37.93301 -89.06698 38871 ft 537 kts 50°
2026-04-28 04:56 37.97569 -88.98939 38868 ft 534 kts 50°
2026-04-28 04:56 37.99669 -88.95109 38847 ft 521 kts 50°
2026-04-28 04:57 38.01711 -88.91375 38836 ft 509 kts 50°
2026-04-28 04:57 38.05727 -88.84043 38859 ft 506 kts 50°
2026-04-28 04:58 38.09744 -88.76706 38865 ft 506 kts 50°
2026-04-28 04:58 38.13751 -88.69363 38869 ft 506 kts 50°
2026-04-28 04:59 38.17750 -88.62014 38859 ft 506 kts 50°
2026-04-28 04:59 38.21748 -88.54646 38856 ft 506 kts 50°
2026-04-28 05:00 38.25739 -88.47277 38857 ft 505 kts 50°
2026-04-28 05:00 38.29723 -88.39905 38864 ft 505 kts 50°
2026-04-28 05:01 38.33706 -88.32515 38859 ft 505 kts 50°
2026-04-28 05:01 38.37634 -88.25209 38846 ft 497 kts 50°
2026-04-28 05:02 38.41519 -88.17965 38845 ft 493 kts 50°
2026-04-28 05:02 38.45386 -88.10749 38851 ft 492 kts 50°
2026-04-28 05:03 38.49248 -88.03527 38844 ft 492 kts 50°
2026-04-28 05:03 38.53102 -87.96303 38859 ft 494 kts 50°
2026-04-28 05:04 38.56993 -87.88992 38862 ft 498 kts 50°
2026-04-28 05:04 38.60873 -87.81681 38869 ft 501 kts 50°
2026-04-28 05:05 38.64789 -87.74283 38861 ft 502 kts 50°
2026-04-28 05:05 38.68704 -87.66871 39043 ft 502 kts 50°
2026-04-28 05:05 38.70630 -87.63217 38811 ft 499 kts 50°
2026-04-28 05:06 38.72586 -87.59500 38697 ft 496 kts 50°
2026-04-28 05:06 38.74485 -87.55889 38483 ft 495 kts 50°
2026-04-28 05:06 38.76413 -87.52223 38207 ft 495 kts 50°
2026-04-28 05:06 38.78337 -87.48562 37962 ft 494 kts 50°
2026-04-28 05:07 38.80251 -87.44912 37795 ft 491 kts 50°
2026-04-28 05:07 38.82152 -87.41282 37633 ft 488 kts 51°
2026-04-28 05:07 38.84040 -87.37673 37465 ft 486 kts 51°
2026-04-28 05:07 38.85920 -87.34074 37324 ft 483 kts 51°
2026-04-28 05:08 38.87779 -87.30512 37316 ft 477 kts 51°
2026-04-28 05:08 38.89593 -87.27030 37213 ft 473 kts 51°
2026-04-28 05:08 38.91429 -87.23507 37023 ft 472 kts 51°
2026-04-28 05:08 38.93252 -87.20009 36818 ft 471 kts 51°
2026-04-28 05:09 38.95069 -87.16515 36594 ft 470 kts 51°
2026-04-28 05:09 38.96884 -87.13022 36440 ft 468 kts 51°
2026-04-28 05:09 38.98688 -87.09543 36267 ft 466 kts 51°
2026-04-28 05:09 39.00479 -87.06088 36084 ft 464 kts 51°
2026-04-28 05:10 39.02244 -87.02677 35918 ft 462 kts 51°
2026-04-28 05:10 39.04022 -86.99239 35743 ft 461 kts 51°
2026-04-28 05:10 39.05793 -86.95811 35537 ft 459 kts 51°
2026-04-28 05:10 39.07560 -86.92387 35372 ft 458 kts 51°
2026-04-28 05:11 39.09319 -86.88974 35201 ft 456 kts 51°
2026-04-28 05:11 39.11071 -86.85572 35022 ft 455 kts 51°
2026-04-28 05:11 39.12816 -86.82179 34841 ft 453 kts 52°
2026-04-28 05:11 39.14528 -86.78840 34473 ft 441 kts 52°
2026-04-28 05:12 39.16193 -86.75587 34118 ft 428 kts 52°
2026-04-28 05:12 39.17803 -86.72440 33830 ft 414 kts 52°
2026-04-28 05:12 39.19365 -86.69386 33425 ft 402 kts 52°
2026-04-28 05:12 39.20866 -86.66453 33040 ft 392 kts 52°
2026-04-28 05:13 39.22352 -86.63550 32565 ft 385 kts 52°
2026-04-28 05:13 39.23826 -86.60670 31995 ft 382 kts 53°
2026-04-28 05:13 39.25281 -86.57825 31424 ft 379 kts 53°
2026-04-28 05:13 39.26724 -86.54999 30902 ft 374 kts 53°
2026-04-28 05:14 39.28148 -86.52206 30433 ft 369 kts 54°
2026-04-28 05:14 39.29548 -86.49457 29974 ft 365 kts 54°
2026-04-28 05:14 39.30936 -86.46728 29409 ft 362 kts 54°
2026-04-28 05:14 39.32309 -86.44024 28877 ft 357 kts 54°
2026-04-28 05:15 39.33663 -86.41356 28382 ft 353 kts 54°
2026-04-28 05:15 39.34996 -86.38727 27908 ft 348 kts 54°
2026-04-28 05:15 39.36317 -86.36122 27424 ft 345 kts 54°
2026-04-28 05:15 39.37624 -86.33542 26959 ft 341 kts 54°
2026-04-28 05:16 39.38914 -86.30994 26515 ft 337 kts 54°
2026-04-28 05:16 39.40189 -86.28473 26085 ft 333 kts 54°
2026-04-28 05:16 39.41433 -86.26011 25634 ft 330 kts 54°
2026-04-28 05:17 39.43923 -86.21078 24796 ft 324 kts 54°
2026-04-28 05:17 39.45148 -86.18646 24398 ft 321 kts 54°
2026-04-28 05:17 39.46363 -86.16235 23981 ft 318 kts 54°
2026-04-28 05:17 39.47565 -86.13846 23594 ft 315 kts 54°
2026-04-28 05:18 39.48745 -86.11500 23205 ft 312 kts 54°
2026-04-28 05:18 39.49922 -86.09158 22772 ft 309 kts 54°
2026-04-28 05:18 39.51091 -86.06828 22337 ft 307 kts 55°
2026-04-28 05:18 39.52249 -86.04522 21930 ft 304 kts 55°
2026-04-28 05:19 39.53399 -86.02227 21528 ft 302 kts 55°
2026-04-28 05:19 39.54539 -85.99953 21139 ft 299 kts 55°
2026-04-28 05:19 39.55667 -85.97700 20744 ft 298 kts 55°
2026-04-28 05:19 39.56794 -85.95446 20356 ft 296 kts 55°
2026-04-28 05:20 39.57912 -85.93208 20063 ft 294 kts 55°
2026-04-28 05:20 39.59008 -85.91014 19716 ft 292 kts 55°
2026-04-28 05:20 39.60111 -85.88807 19344 ft 291 kts 55°
2026-04-28 05:20 39.61209 -85.86606 18994 ft 290 kts 55°
2026-04-28 05:21 39.62298 -85.84417 18662 ft 288 kts 58°
2026-04-28 05:21 39.63177 -85.82089 18312 ft 286 kts 71°
2026-04-28 05:21 39.63692 -85.79609 17962 ft 284 kts 81°
2026-04-28 05:21 39.64025 -85.77095 17588 ft 282 kts 82°
2026-04-28 05:22 39.64341 -85.74589 17222 ft 280 kts 82°
2026-04-28 05:22 39.64651 -85.72097 16883 ft 278 kts 83°
2026-04-28 05:22 39.64954 -85.69658 16553 ft 277 kts 83°
2026-04-28 05:22 39.65262 -85.67198 16221 ft 275 kts 83°
2026-04-28 05:23 39.65565 -85.64774 15942 ft 270 kts 83°
2026-04-28 05:23 39.65864 -85.62393 15773 ft 261 kts 83°
2026-04-28 05:23 39.66152 -85.60115 15638 ft 251 kts 83°
2026-04-28 05:23 39.66430 -85.57906 15442 ft 245 kts 83°
2026-04-28 05:24 39.66703 -85.55737 15191 ft 240 kts 83°
2026-04-28 05:24 39.66968 -85.53634 15215 ft 237 kts 83°
2026-04-28 05:24 39.67231 -85.51520 15227 ft 242 kts 83°
2026-04-28 05:24 39.67499 -85.49367 15210 ft 240 kts 83°
2026-04-28 05:25 39.67764 -85.47252 15192 ft 236 kts 83°
2026-04-28 05:25 39.68026 -85.45148 15230 ft 235 kts 83°
2026-04-28 05:25 39.68289 -85.43038 15238 ft 239 kts 83°
2026-04-28 05:25 39.68555 -85.40893 15239 ft 241 kts 83°
2026-04-28 05:26 39.68823 -85.38737 15247 ft 242 kts 83°
2026-04-28 05:26 39.69086 -85.36626 15216 ft 230 kts 83°
2026-04-28 05:26 39.69338 -85.34614 15145 ft 223 kts 83°
2026-04-28 05:26 39.69584 -85.32622 15052 ft 235 kts 83°
2026-04-28 05:27 39.69837 -85.30565 15042 ft 225 kts 83°
2026-04-28 05:27 39.70082 -85.28594 15010 ft 219 kts 83°
2026-04-28 05:27 39.70324 -85.26631 15024 ft 221 kts 83°
2026-04-28 05:27 39.70567 -85.24650 15056 ft 221 kts 83°
2026-04-28 05:28 39.70805 -85.22714 15049 ft 214 kts 83°
2026-04-28 05:28 39.71039 -85.20809 15048 ft 222 kts 83°
2026-04-28 05:28 39.71286 -85.18774 15080 ft 225 kts 83°
2026-04-28 05:28 39.71527 -85.16812 15046 ft 215 kts 83°
2026-04-28 05:29 39.71760 -85.14925 15012 ft 209 kts 83°
2026-04-28 05:29 39.71985 -85.13083 15018 ft 211 kts 83°
2026-04-28 05:29 39.72214 -85.11192 15105 ft 214 kts 83°
2026-04-28 05:29 39.72447 -85.09267 15110 ft 216 kts 83°
2026-04-28 05:30 39.72682 -85.07331 15126 ft 218 kts 83°
2026-04-28 05:30 39.72919 -85.05378 15119 ft 218 kts 83°
2026-04-28 05:30 39.73156 -85.03416 14916 ft 221 kts 83°
2026-04-28 05:30 39.73396 -85.01431 14497 ft 221 kts 83°
2026-04-28 05:31 39.73632 -84.99490 14535 ft 214 kts 83°
2026-04-28 05:31 39.73860 -84.97600 14398 ft 217 kts 83°
2026-04-28 05:31 39.74094 -84.95651 14045 ft 219 kts 83°
2026-04-28 05:31 39.74329 -84.93704 13669 ft 217 kts 83°
2026-04-28 05:32 39.74561 -84.91774 13265 ft 215 kts 83°
2026-04-28 05:32 39.74790 -84.89862 12864 ft 213 kts 83°
2026-04-28 05:32 39.75018 -84.87961 12470 ft 212 kts 83°
2026-04-28 05:32 39.75245 -84.86074 12082 ft 211 kts 83°
2026-04-28 05:33 39.75502 -84.84220 11882 ft 205 kts 75°
2026-04-28 05:33 39.76004 -84.82503 11898 ft 204 kts 64°
2026-04-28 05:33 39.76620 -84.80857 11873 ft 201 kts 62°
2026-04-28 05:33 39.77245 -84.79232 11876 ft 202 kts 62°
2026-04-28 05:34 39.77885 -84.77569 11720 ft 209 kts 62°
2026-04-28 05:34 39.78542 -84.75856 11292 ft 214 kts 62°
2026-04-28 05:34 39.79211 -84.74110 10827 ft 218 kts 62°
2026-04-28 05:34 39.79894 -84.72321 10381 ft 223 kts 62°
2026-04-28 05:35 39.80591 -84.70494 9919 ft 228 kts 63°
2026-04-28 05:35 39.81302 -84.68624 9422 ft 232 kts 63°
2026-04-28 05:35 39.82026 -84.66720 8930 ft 236 kts 63°
2026-04-28 05:35 39.82752 -84.64807 8425 ft 240 kts 63°
2026-04-28 05:36 39.83496 -84.62845 7930 ft 243 kts 63°
2026-04-28 05:36 39.84248 -84.60859 7445 ft 246 kts 63°
2026-04-28 05:36 39.85007 -84.58853 6965 ft 248 kts 63°
2026-04-28 05:36 39.85772 -84.56828 6492 ft 250 kts 63°
2026-04-28 05:37 39.86527 -84.54829 5979 ft 242 kts 64°
2026-04-28 05:37 39.87258 -84.52895 5490 ft 231 kts 64°
2026-04-28 05:37 39.87949 -84.51065 5003 ft 223 kts 65°
2026-04-28 05:37 39.88629 -84.49265 4541 ft 219 kts 66°
2026-04-28 05:38 39.89268 -84.47576 4492 ft 195 kts 67°
2026-04-28 05:38 39.89832 -84.46087 4453 ft 179 kts 68°
2026-04-28 05:38 39.90372 -84.44652 4438 ft 175 kts 68°
2026-04-28 05:38 39.90905 -84.43230 4440 ft 175 kts 68°
2026-04-28 05:39 39.91440 -84.41802 4447 ft 175 kts 68°
2026-04-28 05:39 39.91972 -84.40377 4456 ft 176 kts 68°
2026-04-28 05:39 39.92519 -84.38914 4345 ft 182 kts 69°
2026-04-28 05:39 39.93072 -84.37434 4101 ft 180 kts 69°
2026-04-28 05:40 39.93617 -84.35983 3823 ft 176 kts 69°
2026-04-28 05:40 39.94144 -84.34581 3562 ft 176 kts 72°
2026-04-28 05:40 39.94674 -84.33162 3346 ft 173 kts 72°
2026-04-28 05:40 39.95196 -84.31773 3175 ft 167 kts 72°
2026-04-28 05:41 39.95704 -84.30413 3169 ft 169 kts 74°
2026-04-28 05:41 39.96046 -84.29488 3150 ft 172 kts 73°
2026-04-28 05:41 39.96563 -84.28101 3205 ft 169 kts 73°
2026-04-28 05:41 39.97258 -84.26233 3266 ft 176 kts 72°
2026-04-28 05:42 39.97794 -84.24791 3351 ft 178 kts 72°
2026-04-28 05:42 39.98334 -84.23347 3387 ft 178 kts 73°
2026-04-28 05:42 39.98700 -84.22365 3428 ft 178 kts 73°
2026-04-28 05:42 39.99413 -84.20455 3425 ft 175 kts 73°
2026-04-28 05:43 39.99766 -84.19509 3404 ft 173 kts 72°
2026-04-28 05:43 40.00291 -84.18096 3422 ft 176 kts 72°
2026-04-28 05:43 40.00839 -84.16616 3427 ft 185 kts 72°
2026-04-28 05:43 40.01400 -84.15114 3419 ft 183 kts 73°
2026-04-28 05:44 40.01953 -84.13631 3407 ft 180 kts 73°
2026-04-28 05:44 40.02497 -84.12177 3374 ft 175 kts 74°
2026-04-28 05:44 40.03028 -84.10746 3408 ft 177 kts 73°
2026-04-28 05:44 40.03573 -84.09273 3410 ft 181 kts 73°
2026-04-28 05:45 40.04116 -84.07803 3389 ft 184 kts 72°
2026-04-28 05:45 40.04676 -84.06296 3384 ft 184 kts 73°
2026-04-28 05:45 40.05235 -84.04790 3373 ft 184 kts 73°
2026-04-28 05:45 40.05791 -84.03295 3358 ft 182 kts 73°
2026-04-28 05:46 40.06338 -84.01816 3363 ft 180 kts 73°
2026-04-28 05:46 40.06884 -84.00344 3328 ft 179 kts 73°
2026-04-28 05:46 40.07426 -83.98884 3343 ft 181 kts 74°
2026-04-28 05:46 40.07984 -83.97362 3352 ft 187 kts 74°
2026-04-28 05:47 40.08538 -83.95865 3333 ft 182 kts 75°
2026-04-28 05:47 40.09081 -83.94399 3305 ft 177 kts 73°
2026-04-28 05:47 40.09541 -83.92899 3297 ft 173 kts 95°
2026-04-28 05:47 40.09298 -83.91587 3329 ft 134 kts 148°
2026-04-28 05:48 40.08550 -83.91244 3338 ft 109 kts 199°
2026-04-28 05:48 40.07950 -83.91856 3351 ft 113 kts 219°
2026-04-28 05:48 40.07349 -83.92504 3336 ft 109 kts 217°
2026-04-28 05:48 40.06808 -83.93172 3321 ft 106 kts 220°
2026-04-28 05:49 40.06292 -83.93890 3340 ft 110 kts 221°
2026-04-28 05:49 40.05772 -83.94611 3356 ft 112 kts 221°
2026-04-28 05:49 40.05243 -83.95371 3346 ft 112 kts 223°
2026-04-28 05:49 40.04751 -83.96130 3336 ft 107 kts 224°
2026-04-28 05:50 40.04285 -83.96903 3358 ft 110 kts 226°
2026-04-28 05:50 40.03249 -83.98744 3351 ft 110 kts 227°
2026-04-28 05:51 40.01521 -84.01961 3385 ft 115 kts 227°
2026-04-28 05:51 40.01065 -84.02820 3364 ft 112 kts 228°
2026-04-28 05:52 40.00629 -84.03641 3378 ft 111 kts 228°
2026-04-28 05:52 40.00190 -84.04472 3391 ft 112 kts 227°
2026-04-28 05:52 39.99753 -84.05299 3380 ft 109 kts 226°
2026-04-28 05:52 39.99332 -84.06095 3374 ft 104 kts 227°
2026-04-28 05:53 39.98921 -84.06868 3410 ft 107 kts 227°
2026-04-28 05:53 39.98494 -84.07676 3403 ft 108 kts 227°
2026-04-28 05:53 39.98071 -84.08472 3397 ft 106 kts 226°
2026-04-28 05:53 39.97655 -84.09260 3280 ft 106 kts 227°
2026-04-28 05:54 39.97235 -84.10052 3155 ft 106 kts 227°
2026-04-28 05:54 39.96807 -84.10858 3021 ft 110 kts 228°
2026-04-28 05:54 39.96370 -84.11684 2871 ft 110 kts 226°
2026-04-28 05:54 39.95945 -84.12488 2729 ft 106 kts 225°
2026-04-28 05:55 39.95524 -84.13280 2611 ft 108 kts 225°
2026-04-28 05:55 39.95090 -84.14100 2475 ft 111 kts 225°
2026-04-28 05:55 39.94649 -84.14932 2317 ft 111 kts 223°
2026-04-28 05:55 39.94201 -84.15771 2161 ft 117 kts 224°
2026-04-28 05:56 39.93732 -84.16657 1995 ft 119 kts 226°
2026-04-28 05:56 39.93249 -84.17569 1832 ft 126 kts 227°
2026-04-28 05:56 39.92737 -84.18536 1632 ft 129 kts 229°
2026-04-28 05:56 39.92239 -84.19476 1421 ft 126 kts 229°
2026-04-28 05:57 39.91735 -84.20424 1275 ft 132 kts 233°
2026-04-28 05:57 39.91212 -84.21415 1052 ft 132 kts 234°
2026-04-28 05:57 39.90716 -84.22340 1017 ft 110 kts 235°
2026-04-28 05:57 39.90407 -84.22923 1011 ft 47 kts 235°
2026-04-28 05:58 39.90277 -84.23165 1011 ft 31 kts 234°
2026-04-28 05:58 39.90227 -84.23256 1012 ft 0 kts 234°
2026-04-28 05:58 39.90184 -84.23305 1012 ft 10 kts 204°
2026-04-28 05:59 39.90149 -84.23295 1013 ft 12 kts 136°
2026-04-28 05:59 39.90116 -84.23203 1014 ft 8 kts 77°
2026-04-28 05:59 39.90164 -84.23093 1014 ft 15 kts 56°
2026-04-28 05:59 39.90224 -84.22979 1012 ft 15 kts 56°
2026-04-28 06:00 39.90288 -84.22866 1012 ft 15 kts 54°
2026-04-28 06:00 39.90329 -84.22767 1012 ft 11 kts 90°
2026-04-28 06:00 39.90279 -84.22702 1011 ft 11 kts 151°
2026-04-28 06:00 39.90214 -84.22651 1011 ft 11 kts 148°
2026-04-28 06:01 39.90158 -84.22588 1011 ft 11 kts 116°
2026-04-28 06:01 39.90134 -84.22354 1012 ft 36 kts 92°
2026-04-28 06:01 39.90162 -84.22088 1015 ft 29 kts 80°
2026-04-28 06:01 39.90212 -84.21854 1016 ft 24 kts 103°
2026-04-28 06:02 39.90126 -84.21744 1018 ft 17 kts 143°
2026-04-28 06:02 39.90038 -84.21698 1019 ft 12 kts 192°
2026-04-28 06:02 39.89917 -84.21707 1020 ft 13 kts 184°
2026-04-28 06:02 39.89862 -84.21741 1020 ft 6 kts 253°
2026-04-28 06:03 39.89877 -84.21788 1020 ft 0 kts 310°